Location: Unspecified
(0.0000°N, 0.0000°E)
Time: 05:44:10
(UTC+00:00)

Courier 1B - All Passes

Search period start: 17 August 2017 00:00
Search period end: 27 August 2017 00:00
Orbit: 963 x 1209 km, 28.3° (Epoch: 16 August)

Date Brightness Start Highest point End Pass type
(mag) Time Alt. Az. Time Alt. Az. Time Alt. Az.
17 Aug - 01:46:35 10° NW 01:50:15 14° NNW 01:53:50 10° N night (unlit)
17 Aug - 07:36:37 10° N 07:38:59 12° NNE 07:41:20 10° NE daylight
17 Aug - 09:27:27 10° NW 09:33:33 43° NNE 09:39:47 10° E daylight
17 Aug - 11:21:15 10° WNW 11:27:35 52° SSW 11:34:17 10° SE daylight
17 Aug - 13:18:17 10° WSW 13:22:18 16° SSW 13:26:27 10° SSE daylight
17 Aug - 19:07:54 10° S 19:11:50 14° SSE 19:15:48 10° SE visible
17 Aug - 20:59:42 10° SW 21:07:03 42° SSE 21:14:14 10° E visible
17 Aug - 22:53:48 10° WSW 23:01:32 64° NNW 23:08:55 10° NE night (unlit)
18 Aug - 00:50:55 10° WNW 00:56:08 20° NNW 01:01:11 10° NNE night (unlit)
18 Aug - 08:34:11 10° NNW 08:39:46 30° NNE 08:45:24 10° E daylight
18 Aug - 10:27:20 10° WNW 10:33:49 73° SSW 10:40:34 10° SE daylight
18 Aug - 12:23:21 10° WSW 12:28:14 21° SSW 12:33:18 10° SSE daylight
18 Aug - 18:15:46 10° S 18:17:28 11° SSE 18:19:10 10° SSE daylight
18 Aug - 20:06:10 10° SSW 20:12:57 31° SSE 20:19:41 10° E visible
18 Aug - 21:59:38 10° WSW 22:07:33 86° NNW 22:15:13 10° ENE visible
18 Aug - 23:55:45 10° W 00:02:04 27° NNW 00:08:09 10° NNE night (unlit)
19 Aug - 07:41:04 10° NNW 07:45:55 22° NNE 07:50:45 10° ENE daylight
19 Aug - 09:33:37 10° WNW 09:40:05 81° NNE 09:46:44 10° ESE daylight
19 Aug - 11:28:45 10° W 11:34:16 28° SSW 11:40:01 10° SSE daylight
19 Aug - 19:12:49 10° SSW 19:18:48 24° SSE 19:24:50 10° ESE visible
19 Aug - 21:05:41 10° SW 21:13:34 72° SSE 21:21:17 10° ENE visible
19 Aug - 23:00:57 10° W 23:08:02 37° NNW 23:14:53 10° NE night (unlit)
20 Aug - 01:00:37 10° NW 01:03:07 12° NNW 01:05:35 10° N night (unlit)
20 Aug - 06:48:09 10° NNW 06:51:58 16° NNE 06:55:45 10° ENE daylight
20 Aug - 08:40:02 10° NW 08:46:22 57° NNE 08:52:46 10° ESE daylight
20 Aug - 10:34:27 10° W 10:40:25 38° SSW 10:46:36 10° SE daylight
20 Aug - 12:32:56 10° SW 12:35:16 12° SSW 12:37:39 10° S daylight
20 Aug - 18:19:42 10° SSW 18:24:36 18° SSE 18:29:33 10° ESE visible
20 Aug - 20:11:56 10° SW 20:19:32 53° SSE 20:27:07 10° ENE visible
20 Aug - 22:06:26 10° WSW 22:14:00 50° NNW 22:21:24 10° NE visible
21 Aug - 00:04:22 10° WNW 00:08:53 16° NNW 00:13:17 10° NNE night (unlit)
21 Aug - 05:55:44 10° N 05:57:56 12° NNE 06:00:06 10° NE daylight
21 Aug - 07:46:35 10° NW 07:52:38 40° NNE 07:58:38 10° E daylight
21 Aug - 09:40:21 10° WNW 09:46:39 54° SSW 09:53:04 10° SE daylight
21 Aug - 11:37:22 10° WSW 11:41:10 16° SSW 11:45:03 10° SSE daylight
21 Aug - 17:27:02 10° S 17:30:20 13° SSE 17:33:40 10° SE daylight
21 Aug - 19:18:21 10° SW 19:25:29 39° SSE 19:32:43 10° E visible
21 Aug - 21:12:10 10° WSW 21:20:00 69° NNW 21:27:44 10° NE visible
21 Aug - 23:08:56 10° WNW 23:14:43 22° NNW 23:20:22 10° NNE night (unlit)
22 Aug - 06:53:15 10° NNW 06:58:49 29° NNE 07:04:17 10° E daylight
22 Aug - 08:46:26 10° WNW 08:52:55 77° SSW 08:59:26 10° SE daylight
22 Aug - 10:42:24 10° WSW 10:47:10 21° SSW 10:52:03 10° SSE daylight
22 Aug - 18:24:57 10° SSW 18:31:25 29° SSE 18:38:01 10° E visible
22 Aug - 20:18:08 10° WSW 20:25:59 89° SSE 20:33:52 10° ENE visible
22 Aug - 22:13:55 10° W 22:20:35 30° NNW 22:27:09 10° NNE visible
23 Aug - 06:00:02 10° NNW 06:04:56 21° NNE 06:09:42 10° ENE daylight
23 Aug - 07:52:40 10° NW 07:59:13 76° NNE 08:05:41 10° ESE daylight
23 Aug - 09:47:48 10° W 09:53:18 29° SSW 09:58:53 10° SSE daylight
23 Aug - 17:31:46 10° SSW 17:37:18 22° SSE 17:42:58 10° ESE daylight
23 Aug - 19:24:19 10° SW 19:31:59 67° SSE 19:39:48 10° ENE visible
23 Aug - 21:19:16 10° W 21:26:30 40° NNW 21:33:42 10° NE visible
23 Aug - 23:18:10 10° NW 23:21:40 13° NNW 23:25:08 10° N night (unlit)
24 Aug - 05:06:59 10° NNW 05:10:55 16° NNE 05:14:45 10° ENE visible
24 Aug - 06:59:00 10° NW 07:05:29 53° NNE 07:11:46 10° ESE daylight
24 Aug - 08:53:27 10° W 08:59:30 40° SSW 09:05:33 10° SE daylight
24 Aug - 10:51:58 10° SW 10:54:11 12° SSW 10:56:24 10° S daylight
24 Aug - 16:38:55 10° SSW 16:43:08 16° SSE 16:47:28 10° ESE daylight
24 Aug - 18:30:41 10° SW 18:37:59 49° SSE 18:45:31 10° ENE visible
24 Aug - 20:24:54 10° WSW 20:32:27 54° NNW 20:40:05 10° NE visible
24 Aug - 22:22:22 10° WNW 22:27:23 18° NNW 22:32:23 10° NNE visible
25 Aug - 04:14:20 10° N 04:16:48 12° NNE 04:19:12 10° NE visible
25 Aug - 06:05:27 10° NW 06:11:41 38° NNE 06:17:41 10° E daylight
25 Aug - 07:59:17 10° WNW 08:05:45 58° SSW 08:12:07 10° SE daylight
25 Aug - 09:56:17 10° WSW 10:00:08 16° SSW 10:03:59 10° SSE daylight
25 Aug - 15:46:47 10° S 15:48:55 11° SSE 15:51:04 10° SE daylight
25 Aug - 17:37:16 10° SW 17:43:59 36° SSE 17:50:58 10° E daylight
25 Aug - 19:30:47 10° WSW 19:38:26 73° NNW 19:46:17 10° NE visible
25 Aug - 21:27:08 10° WNW 21:33:11 24° NNW 21:39:13 10° NNE visible
26 Aug - 05:12:01 10° NNW 05:17:49 28° NNE 05:23:22 10° E visible
26 Aug - 07:05:18 10° WNW 07:12:02 82° SSW 07:18:32 10° ESE daylight
26 Aug - 09:01:17 10° WSW 09:06:12 22° SSW 09:11:06 10° SSE daylight
26 Aug - 16:44:01 10° SSW 16:49:58 26° SSE 16:56:08 10° E daylight
26 Aug - 18:36:53 10° WSW 18:44:27 85° SSE 18:52:19 10° ENE visible
26 Aug - 20:32:19 10° W 20:39:02 32° NNW 20:45:51 10° NNE visible
26 Aug - 22:32:36 10° NNW 22:34:31 11° NNW 22:36:25 10° N visible
